QFA122 YMML-YBBN

Flight info

Callsign QFA122
Flight time N/A
Altitude 35000
Route NONIX4/27 NONIX H66 LAGOB H252 BN
Aircraft B738/M-SDE2E3FGHIRWXY/LB1

Departure

Time 2026-05-08 06:47
Airport Melbourne Airport (YMML)

Arrival

Time N/A
Airport Brisbane International Airport (YBBN)
Time Latitude Longitude Altitude Speed Heading
2026-05-08 06:21 -37.66628 144.84894 412 ft 0 kts 173°
2026-05-08 06:41 -37.66615 144.84892 409 ft 3 kts 173°
2026-05-08 06:41 -37.66592 144.84889 406 ft 3 kts 162°
2026-05-08 06:42 -37.66572 144.84894 403 ft 3 kts 186°
2026-05-08 06:42 -37.66551 144.84892 406 ft 3 kts 234°
2026-05-08 06:42 -37.66548 144.84900 405 ft 0 kts 255°
2026-05-08 06:44 -37.66548 144.84899 405 ft 1 kts 255°
2026-05-08 06:44 -37.66548 144.84862 404 ft 7 kts 277°
2026-05-08 06:44 -37.66528 144.84800 408 ft 8 kts 314°
2026-05-08 06:44 -37.66473 144.84788 414 ft 8 kts 12°
2026-05-08 06:45 -37.66414 144.84790 411 ft 9 kts 360°
2026-05-08 06:45 -37.66365 144.84787 412 ft 0 kts 355°
2026-05-08 06:46 -37.66360 144.84787 405 ft 2 kts 356°
2026-05-08 06:46 -37.66311 144.84783 413 ft 12 kts 356°
2026-05-08 06:46 -37.66220 144.84722 412 ft 14 kts 300°
2026-05-08 06:47 -37.66207 144.84416 413 ft 76 kts 273°
2026-05-08 06:47 -37.66152 144.83386 412 ft 156 kts 275°
2026-05-08 06:47 -37.65980 144.81857 986 ft 185 kts 278°
2026-05-08 06:47 -37.65732 144.80224 2079 ft 190 kts 265°
2026-05-08 06:48 -37.65740 144.78559 3155 ft 189 kts 264°
2026-05-08 06:48 -37.65698 144.76917 4240 ft 184 kts 265°
2026-05-08 06:48 -37.65633 144.75317 4669 ft 181 kts 266°
2026-05-08 06:48 -37.65559 144.73658 4818 ft 203 kts 267°
2026-05-08 06:49 -37.65465 144.71752 5031 ft 227 kts 268°
2026-05-08 06:49 -37.65355 144.69661 5337 ft 248 kts 269°
2026-05-08 06:49 -37.65022 144.67493 5963 ft 266 kts 289°
2026-05-08 06:49 -37.63895 144.65587 6808 ft 281 kts 316°
2026-05-08 06:50 -37.62156 144.64356 7542 ft 294 kts 336°
2026-05-08 06:50 -37.60173 144.63583 8267 ft 302 kts 340°
2026-05-08 06:50 -37.58137 144.62861 9054 ft 306 kts 341°
2026-05-08 06:50 -37.56020 144.62360 9816 ft 316 kts 359°
2026-05-08 06:51 -37.53859 144.62941 10416 ft 328 kts 26°
2026-05-08 06:51 -37.52012 144.64735 10599 ft 347 kts 53°
2026-05-08 06:51 -37.50524 144.67206 10998 ft 360 kts 57°
2026-05-08 06:51 -37.49039 144.69779 11631 ft 366 kts 57°
2026-05-08 06:52 -37.47521 144.72370 12378 ft 369 kts 56°
2026-05-08 06:52 -37.45851 144.74850 13101 ft 375 kts 49°
2026-05-08 06:52 -37.44030 144.77225 13815 ft 379 kts 47°
2026-05-08 06:52 -37.42794 144.78791 14264 ft 382 kts 47°
2026-05-08 06:53 -37.40920 144.81182 14919 ft 385 kts 48°
2026-05-08 06:53 -37.39051 144.83602 15616 ft 386 kts 48°
2026-05-08 06:53 -37.37181 144.86043 16298 ft 389 kts 48°
2026-05-08 06:53 -37.35302 144.88507 16938 ft 392 kts 48°
2026-05-08 06:54 -37.33409 144.90994 17583 ft 395 kts 48°
2026-05-08 06:54 -37.31503 144.93498 18234 ft 398 kts 48°
2026-05-08 06:54 -37.29583 144.96019 18822 ft 401 kts 48°
2026-05-08 06:54 -37.27650 144.98556 19381 ft 403 kts 48°
2026-05-08 06:55 -37.25704 145.01106 19952 ft 405 kts 48°
2026-05-08 06:55 -37.23747 145.03669 20480 ft 408 kts 48°
2026-05-08 06:55 -37.21775 145.06249 21020 ft 411 kts 48°
2026-05-08 06:55 -37.19788 145.08846 21533 ft 414 kts 49°
2026-05-08 06:56 -37.17787 145.11460 22061 ft 417 kts 48°
2026-05-08 06:56 -37.15773 145.14088 22573 ft 419 kts 49°
2026-05-08 06:56 -37.13747 145.16732 23053 ft 423 kts 49°
2026-05-08 06:56 -37.11700 145.19399 23540 ft 426 kts 49°
2026-05-08 06:57 -37.09640 145.22082 23994 ft 429 kts 49°
2026-05-08 06:57 -37.07562 145.24777 24387 ft 432 kts 47°
2026-05-08 06:57 -37.05353 145.27347 24756 ft 437 kts 43°
2026-05-08 06:57 -37.03013 145.29799 25137 ft 440 kts 41°
2026-05-08 06:58 -37.00613 145.32210 25544 ft 443 kts 41°
2026-05-08 06:58 -36.98196 145.34616 25903 ft 445 kts 41°
2026-05-08 06:58 -36.95802 145.37014 26253 ft 448 kts 41°
2026-05-08 06:58 -36.93373 145.39468 26620 ft 451 kts 41°
2026-05-08 06:59 -36.90933 145.41955 26973 ft 454 kts 41°
2026-05-08 06:59 -36.88486 145.44461 27316 ft 456 kts 42°
2026-05-08 06:59 -36.86027 145.46988 27659 ft 459 kts 42°
2026-05-08 06:59 -36.83557 145.49529 28011 ft 461 kts 42°
2026-05-08 07:00 -36.81073 145.52083 28339 ft 464 kts 42°
2026-05-08 07:00 -36.78579 145.54645 28659 ft 466 kts 42°
2026-05-08 07:00 -36.76065 145.57224 28968 ft 469 kts 42°
2026-05-08 07:00 -36.73540 145.59812 29264 ft 471 kts 42°
2026-05-08 07:01 -36.70996 145.62417 29556 ft 474 kts 42°
2026-05-08 07:01 -36.68440 145.65031 29852 ft 476 kts 42°
2026-05-08 07:01 -36.65875 145.67652 30150 ft 478 kts 42°
2026-05-08 07:01 -36.63297 145.70284 30412 ft 481 kts 42°
2026-05-08 07:02 -36.60705 145.72928 30649 ft 483 kts 42°
2026-05-08 07:02 -36.58101 145.75581 30889 ft 484 kts 42°
2026-05-08 07:02 -36.55490 145.78239 31138 ft 486 kts 42°
2026-05-08 07:02 -36.52873 145.80902 31393 ft 487 kts 42°
2026-05-08 07:03 -36.50255 145.83562 31746 ft 485 kts 42°
2026-05-08 07:03 -36.47647 145.86209 32132 ft 483 kts 42°
2026-05-08 07:03 -36.45051 145.88841 32485 ft 481 kts 42°
2026-05-08 07:03 -36.42462 145.91465 32781 ft 481 kts 42°
2026-05-08 07:04 -36.39870 145.94090 33065 ft 481 kts 42°
2026-05-08 07:04 -36.37279 145.96712 33390 ft 480 kts 42°
2026-05-08 07:04 -36.34697 145.99322 33731 ft 478 kts 42°
2026-05-08 07:04 -36.32126 146.01919 34053 ft 477 kts 42°
2026-05-08 07:05 -36.29556 146.04513 34320 ft 476 kts 42°
2026-05-08 07:05 -36.26991 146.07098 34582 ft 475 kts 42°
2026-05-08 07:05 -36.24429 146.09679 34856 ft 474 kts 41°
2026-05-08 07:05 -36.21874 146.12250 35106 ft 473 kts 41°
2026-05-08 07:06 -36.19321 146.14819 35238 ft 475 kts 41°
2026-05-08 07:06 -36.16747 146.17406 35230 ft 478 kts 41°
2026-05-08 07:06 -36.11582 146.22589 35222 ft 477 kts 41°
2026-05-08 07:07 -36.06469 146.27709 35225 ft 470 kts 41°
2026-05-08 07:07 -36.01386 146.32791 35227 ft 470 kts 41°
2026-05-08 07:08 -35.96341 146.37828 35224 ft 469 kts 41°
2026-05-08 07:08 -35.91259 146.42894 35229 ft 470 kts 41°
2026-05-08 07:09 -35.86168 146.47959 35228 ft 471 kts 40°
2026-05-08 07:09 -35.81066 146.53027 35226 ft 472 kts 40°
2026-05-08 07:10 -35.75946 146.58103 35226 ft 473 kts 40°
2026-05-08 07:10 -35.70812 146.63185 35229 ft 474 kts 40°
2026-05-08 07:11 -35.65664 146.68272 35228 ft 475 kts 40°
2026-05-08 07:11 -35.60508 146.73359 35230 ft 476 kts 40°
2026-05-08 07:12 -35.55341 146.78448 35226 ft 476 kts 40°
2026-05-08 07:12 -35.50173 146.83531 35226 ft 477 kts 40°
2026-05-08 07:13 -35.44993 146.88616 35224 ft 477 kts 40°
2026-05-08 07:13 -35.39813 146.93687 35225 ft 477 kts 39°
2026-05-08 07:14 -35.34627 146.98755 35224 ft 476 kts 39°
2026-05-08 07:14 -35.29448 147.03809 35228 ft 476 kts 39°
2026-05-08 07:15 -35.24265 147.08860 35225 ft 476 kts 39°
2026-05-08 07:15 -35.19082 147.13904 35230 ft 476 kts 39°
2026-05-08 07:16 -35.13898 147.18940 35231 ft 476 kts 39°
2026-05-08 07:16 -35.08710 147.23970 35229 ft 476 kts 39°
2026-05-08 07:17 -35.03525 147.28990 35232 ft 476 kts 39°
2026-05-08 07:17 -34.98328 147.34014 35234 ft 477 kts 39°
2026-05-08 07:18 -34.93132 147.39027 35227 ft 477 kts 39°
2026-05-08 07:18 -34.87957 147.44012 35228 ft 478 kts 38°
2026-05-08 07:19 -34.82737 147.49032 35233 ft 479 kts 38°
2026-05-08 07:19 -34.77505 147.54055 35231 ft 479 kts 38°
2026-05-08 07:20 -34.72267 147.59076 35231 ft 480 kts 38°
2026-05-08 07:20 -34.67019 147.64097 35232 ft 480 kts 38°
2026-05-08 07:21 -34.61763 147.69119 35235 ft 481 kts 38°
2026-05-08 07:21 -34.56494 147.74144 35234 ft 482 kts 38°
2026-05-08 07:22 -34.51217 147.79169 35232 ft 483 kts 38°
2026-05-08 07:22 -34.45932 147.84193 35234 ft 483 kts 38°
2026-05-08 07:23 -34.40634 147.89221 35231 ft 484 kts 38°
2026-05-08 07:23 -34.35330 147.94245 35238 ft 484 kts 37°
2026-05-08 07:24 -34.30022 147.99266 35233 ft 484 kts 37°
2026-05-08 07:24 -34.24713 148.04280 35233 ft 485 kts 37°
2026-05-08 07:25 -34.19393 148.09295 35228 ft 485 kts 37°
2026-05-08 07:26 -34.11413 148.16804 35235 ft 485 kts 37°
2026-05-08 07:26 -34.06090 148.21801 35241 ft 485 kts 37°
2026-05-08 07:27 -34.00768 148.26789 35234 ft 485 kts 37°
2026-05-08 07:27 -33.95442 148.31774 35241 ft 484 kts 37°
2026-05-08 07:28 -33.90151 148.36717 35236 ft 484 kts 37°
2026-05-08 07:28 -33.84823 148.41687 35232 ft 484 kts 37°
2026-05-08 07:29 -33.79501 148.46643 35230 ft 484 kts 37°
2026-05-08 07:29 -33.74173 148.51597 35236 ft 484 kts 37°
2026-05-08 07:30 -33.68848 148.56541 35231 ft 484 kts 37°
2026-05-08 07:30 -33.63525 148.61474 35238 ft 483 kts 37°
2026-05-08 07:31 -33.58198 148.66404 35239 ft 484 kts 37°
2026-05-08 07:31 -33.52869 148.71327 35238 ft 484 kts 37°
2026-05-08 07:32 -33.47535 148.76247 35237 ft 484 kts 36°
2026-05-08 07:32 -33.42200 148.81160 35239 ft 484 kts 36°
2026-05-08 07:33 -33.36859 148.86070 35240 ft 484 kts 36°
2026-05-08 07:33 -33.31515 148.90977 35240 ft 485 kts 36°
2026-05-08 07:34 -33.26164 148.95881 35236 ft 485 kts 36°
2026-05-08 07:34 -33.20805 149.00784 35237 ft 485 kts 36°
2026-05-08 07:35 -33.15446 149.05680 35238 ft 485 kts 36°
2026-05-08 07:35 -33.10086 149.10570 35238 ft 485 kts 36°
2026-05-08 07:35 -33.07373 149.13015 34495 ft 497 kts 35°
2026-05-08 07:36 -33.04493 149.15477 31188 ft 525 kts 33°
2026-05-08 07:36 -33.01302 149.17947 26187 ft 569 kts 30°
2026-05-08 07:36 -32.97823 149.20270 21698 ft 567 kts 26°
2026-05-08 07:36 -32.94313 149.22147 18582 ft 540 kts 19°
2026-05-08 07:37 -32.90816 149.23512 16304 ft 518 kts 13°
2026-05-08 07:37 -32.87355 149.24373 14826 ft 500 kts
2026-05-08 07:37 -32.83943 149.24768 13770 ft 486 kts
2026-05-08 07:37 -32.80602 149.24730 12892 ft 475 kts 354°
2026-05-08 07:38 -32.77363 149.24293 12185 ft 462 kts 348°
2026-05-08 07:38 -32.74262 149.23497 11497 ft 450 kts 342°